www.pogodaiklimat.ru

Погода и климат >> Архив погоды >> Боливия >> Concepcion


ПОГОДА в Concepcion

  • Прогноз погоды в Concepcion
  • Монитор погоды в Concepcion
  • Климат города

АРХИВ ПОГОДЫ в Concepcion

Время (UTC), дата Ветер
(напр.,м/с)
 
Видим.   Явления Облачность Т
(С)
Тd
(С)
f
(%)
Тe
(С)
Тes
(С)
Комфортность P
(гПа)
Po
(гПа)
Тmin
(С)
Tmax
(С)
R
(мм)
R24
(мм)
S
(см)
12 13.11 штиль 0 30 км ясно +21.7 +19.2 86 +27 +35 душно 1013.0 955.0 +16.0
15 13.11 штиль 0 30 км ясно +28.7 +19.2 56 +34 +62 опасность
солнечного
удара
1013.7 955.5
18 13.11 штиль 0 30 км ясно +31.3 +19.7 50 +37 +61 опасность
солнечного
удара
1011.4 953.1
21 13.11 штиль 0 30 км ясно +32.0 +19.3 47 +38 +41 очень
душно
1008.3 950.0 +33.0
12 14.11 штиль 0 30 км ясно +22.0 +19.1 84 +27 +35 душно 1011.9 993.8 +15.4
15 14.11 штиль 0 30 км ясно +31.0 +19.0 49 +36 +64 опасность
солнечного
удара
1012.0 953.7
18 14.11 штиль 0 30 км ясно +32.0 +21.0 52 +39 +63 опасность
солнечного
удара
1009.7 951.2
21 14.11 штиль 0 30 км ясно +32.5 +22.4 55 +42 +46 опасность
перегрева
1007.3 948.8 +34.0
12 15.11 СВ 6 30 км 9/8 240 м
[Cb cap Ac trans]
+23.0 +21.6 92 +31 +31 очень
душно
1013.0 954.5 +21.0
15 15.11 СЗ 4 30 км {дождь} 5/3 360 м
[Sc Ac trans]
+26.0 +23.3 85 +35 +43 очень
душно
1012.5 954.0
18 15.11 СВ 5 30 км 3/3 500 м
[Cu med, cong]
+31.0 +22.9 62 +41 +47 опасность
перегрева
1008.9 950.4 2
21 15.11 С 4 30 км 1/1 500 м
[Cu hum]
+30.0 +22.5 64 +39 +41 очень
душно
1006.8 949.2 +32.0
12 16.11 штиль 0 20 км в посл. час дождь 10/10 210 м
[Sc]
+23.5 +22.8 96 +31 +31 очень
душно
1013.3 954.8 +22.0 2
15 16.11 СЗ 5 30 км 8/8 400 м
[Cb cap]
+27.0 +24.3 85 +38 +40 очень
душно
1013.7 955.2
18 16.11 СЗ 3 30 км {ливн. осадки} 6/6 500 м
[Cu med, cong]
+30.0 +24.0 70 +41 +47 опасность
перегрева
1010.2 951.7 2
21 16.11 СЗ 5 30 км гроза без осадков 9/6 500 м
[Cb cap As op]
+27.5 +23.5 79 +37 +38 очень
душно
1008.6 950.1 +29.0
12 17.11 СЗ 3 30 км 10/8 180 м
[Sc As op]
+22.5 +21.8 96 +30 +30 очень
душно
1011.3 952.8 +20.0 2
15 17.11 С 4 30 км 10/10 360 м
[Sc]
+24.5 +22.4 88 +32 +32 очень
душно
1011.0 952.5
18 17.11 С 6 30 км 10/8 450 м
[Sc As op]
+27.5 +23.5 79 +37 +38 очень
душно
1008.7 950.2
21 17.11 С 5 30 км 10/6 450 м
[Sc Cs]
+26.5 +24.5 89 +37 +38 очень
душно
1006.1 947.6 +28.3
12 18.11 С 4 30 км 9/9 210 м
[Sc]
+23.5 +22.8 96 +31 +31 очень
душно
1010.5 952.0 +21.0
15 18.11 СЗ 4 30 км в посл. час ливневой дождь 10/10 360 м
[Sc]
+25.0 +23.6 92 +34 +34 очень
душно
1011.1 952.6
18 18.11 С 5 30 км {ливн. осадки} 8/8 500 м
[Sc]
+28.5 +23.7 75 +39 +41 очень
душно
1008.5 950.0 0.5
21 18.11 С 5 4000 м слабый дождь 9/8 500 м
[Cb cap Ac trans]
+26.0 +23.2 85 +35 +35 очень
душно
1007.3 948.8 +30.0
12 19.11 Ю 2 5000 м гроза, ливневой дождь 10/8 300 м
[Cb cap As op]
+20.0 +20.0 100 +24 +24 комфорт 1012.0 953.5 +19.0 13
15 19.11 Ю 4 7000 м слабый ливневой дождь, в посл. час гроза 10/8 300 м
[Sc As op]
+20.3 +20.0 98 +24 +25 комфорт 1013.3 954.8
18 19.11 штиль 0 30 км {гроза, дождь} 10/8 700 м
[Sc As op]
+21.5 +20.8 96 +27 +28 душно 1010.7 952.2 6
21 19.11 штиль 0 30 км {дождь} 10/8 700 м
[Sc As op]
+22.0 +20.6 92 +28 +28 душно 1007.5 949.0 +23.0

 

Местоположение метеостанции Concepcion (Боливия): широта -16.14 долгота -62.01 высота над уровнем моря 497 м.

В архиве по умолчанию представлена погода в Concepcion за последнюю неделю. Архивные данные за месяц целиком и за предыдущие месяцы, начиная с января 2011 года, Вы можете получить, выбрав интересующий диапазон дат из раскрывающегося списка и нажав кнопку "Ввод!".

Внимание! Время в таблицах - всемирное. Для получения местного времени необходимо прибавить поправку, которая в Concepcion равна -4 ч.

Смотрите также архив погоды в соседних городах и на ближайших метеорологических станциях:

Погода в San Javier (Боливия) (50 км)
Погода в San Ignacio De Velasco (Боливия) (115 км)
Погода в Ascencion De Guaray (Боливия) (126 км)
Погода в Viru-Viru (Боливия) (204 км)
Погода в Santa Cruz (Боливия) (223 км)
Погода в San Jose De Chiquitos (Боливия) (229 км)
Погода в Vila Bela da S Trind (Бразилия) (258 км)
Погода в Pontes E Lacerda (Бразилия) (302 км)
Погода в Vallegrande (Боливия) (340 км)
Погода в Robore (Боливия) (340 км)

Пояснения к столбцам:

Ветер - указаны скорость ветра в м/с - средняя за 10 мин, порывы в срок и между сроками (в фигурных скобках) и направление, откуда дует ветер: С - северный, СВ - северо-восточный, В - восточный, ЮВ - юго-восточный, Ю - южный, ЮЗ - юго-западный, З - западный, СЗ - северо-западный.
Видимость - горизонтальная дальность видимости в метрах или километрах. При видимости от 1 до 10 км при отсутствии осадков обычно наблюдается дымка, при ухудшении видимости до 1 км и менее - туман. В сухую погоду видимость может ухудшаться дымом, пылью или мглою.
Явления - указаны атмосферные явления, наблюдавшиеся в срок или в последний час перед сроком; фигурными скобками обозначены явления, наблюдавшиеся между сроками (за 1-3 часа до срока); квадратными скобками обозначены град или гололедные отложения с указанием их диаметра в мм.
Облачность - указаны через наклонную черту общая и нижняя облачность в баллах и высота нижней границы облаков в метрах; квадратными скобками обозначены формы облаков: Ci - перистые, Cs - перисто-слоистые, Cc - перисто-кучевые, Ac - высококучевые, As - высокослоистые, Sc - слоисто-кучевые, Ns - слоисто-дождевые, Cu - кучевые, Cb - кучево-дождевые. Подробнее классификацию облаков см. в Атласе облаков (PDF).
T - Температура воздуха - температура, измеренная на высоте 2 м над землей.
Td - Температура точки росы - температура, при понижении до которой содержащийся в воздухе водяной пар достигнет насыщения.
f - Относительная влажность воздуха - влажноcть воздуха, измеренная на высоте 2 м над землей.
Te - Эффективная температура - температура, которую ощущает одетый по сезону человек в тени. Характеристика душности погоды. При расчете учитывается влияние влажности воздуха и скорости ветра на теплоощущения человека.
Tes - Эффективная температура на солнце - температура, которую ощущает человек, с поправкой на солнечный нагрев. Характеристика знойности погоды. Зависит от высоты солнца над горизонтом, облачности и скорости ветра. Ночью, в пасмурную погоду, а также при ветре 12 м/с и более поправка равна нулю.
P - Атмосферное давление - приведенное к уровню моря атмосферное давление.
Po - Атмосферное давление - измеренное на уровне метеостанции атмосферное давление.
Tmin - Минимальная температура - минимум температуры воздуха на высоте 2 м над землей.
Tmax - Максимальная температура - максимум температуры воздуха на высоте 2 м над землей.
R - Количество осадков - Количество выпавших осадков за период времени, мм. При наведении курсора мыши на число - период времени, за который выпало указанное количество осадков.
R24 - Количество осадков - Количество выпавших осадков за 24 часа, мм.
S - Снежный покров - Высота снежного покрова, см. При наведении курсора мыши на число - состояние снежного покрова и степень покрытия местности в баллах.